LEGION 1

Last updated on Wed Sep 17 2025 00:02:31 GMT+0000 (Coordinated Universal Time)

1 59625U 24081A 25259.52339377 .00004790 00000+0 24871-3 0 9998 2 59625 97.5296 334.8133 0002920 15.6110 344.5212 15.16589696 76054
UTC large
Height (km)
Speed (km/s)
/
Latitude / Longitude
Inclination (degrees)
Orbital Period (minutes)
Azimuth
Elevation
Range (km)
Doppler Factor

Next 0 passes for location: London (51.5072 / 0.1276)

Sorry there are no passes over London.